Home   Weather   Wels   Past weeks

Flag for Austria Past Weather in Wels, Upper Austria, Austria — Yesterday and Last 2 Weeks

Now
72 °F

Partly sunny.


Feels Like: 77 °F
Forecast: 54 / 60 °F
Wind: N/A

Location: Linz / Hoersching-Flughafen

Current Time: Oct 1, 2016 at 5:35:48 PM

Latest Report: Oct 1, 2016 at 4:00 PM


Visibility: 16 mi

Pressure: 29.83 "Hg

Humidity: 51%

Dew Point: 53 °F

Location of WelsLocation

Past Weather in Wels — Graph

°F

Wels Temperature Yesterday

Maximum temperature yesterday: 76 °F (at 6:00 PM)
Minimum temperature yesterday: 50 °F (at 6:00 AM)
Average temperature yesterday: 62 °F

High & Low Weather Summary for the Past Weeks

 TemperatureHumidityPressure
High76 °F (Sep 30, 6:00 PM)100% (Sep 26, 7:00 AM)30.43 "Hg (Sep 26, 7:00 AM)
Low43 °F (Sep 24, 7:00 AM)35% (Sep 24, 4:00 PM)29.79 "Hg (Sep 17, 1:00 AM)
Average58 °F80%30.12 "Hg
* Reported Sep 16 4:00 PM — Oct 1 4:00 PM, Wels, Weather by CustomWeather, © 2016

Note: Actual official high and low records may vary slightly from our data, if they occured in-between our weather recording intervals... More about our weather records

Advertising

Wels Weather History for the Previous 24 Hours

Scroll right to see more
 ConditionsComfort  
Time TempWeatherWind HumidityBarometerVisibility
4:00 PM
Sat, Oct 1
72 °FPartly sunny.N/A51%29.83 "Hg16 mi
3:00 PM72 °FPartly sunny.N/A52%29.84 "Hg19 mi
2:00 PM71 °FPartly sunny.N/A55%29.86 "Hg15 mi
1:00 PM67 °FPartly sunny.N/A58%29.88 "Hg16 mi
12:00 PM66 °FPartly sunny.N/A60%29.90 "Hg11 mi
11:00 AM62 °FPartly sunny.N/A70%29.92 "Hg19 mi
10:00 AM59 °FPartly sunny.N/A79%29.93 "Hg12 mi
9:00 AM54 °FPartly sunny.N/A87%29.93 "Hg5 mi
8:00 AM49 °FPartly sunny.N/A96%29.95 "Hg3 mi
7:00 AM48 °FLight rain. Passing clouds.N/A97%29.95 "Hg3 mi
6:00 AM50 °FPassing clouds.N/A91%29.96 "Hg5 mi
5:00 AM51 °FPassing clouds.N/A96%29.95 "Hg3 mi
4:00 AM51 °FPassing clouds.N/A96%29.96 "Hg3 mi
3:00 AM52 °FCool.N/A92%29.98 "Hg8 mi
2:00 AMN/APassing clouds.13 mphN/AN/A16 mi
1:00 AM55 °FCool.N/A90%29.99 "Hg12 mi
12:00 AM58 °FPassing clouds.N/A84%29.99 "Hg16 mi
11:00 PM
Fri, Sep 30
60 °FPassing clouds.N/A82%29.99 "Hg16 mi
10:00 PM61 °FOvercast.N/A80%29.99 "Hg19 mi
9:00 PM63 °FOvercast.N/A72%29.99 "Hg25 mi
8:00 PM66 °FPassing clouds.N/A63%29.97 "Hg25 mi
7:00 PM68 °FPassing clouds.N/A57%29.96 "Hg25 mi
6:00 PM76 °FScattered clouds.No wind42%29.94 "Hg28 mi
5:00 PM75 °FScattered clouds.N/A39%29.94 "Hg16 mi
Weather by CustomWeather, © 2016

See weather overviewHow to use our weather pages